Regional Weather Roundup
Issued by NWS

Home | Current Version | Previous Version | Text Only | Print | Product List | Glossary On
Versions: 1 2 3 4 5 6 7 8 9 10 11 12 13 14 15 16 17 18 19 20 21 22 23 24 25 26 27 28 29 30 31 32 33 34 35 36 37 38 39 40 41 42 43 44 45 46 47 48 49 50
000
ASUS43 KTOP 010259
RWRKS

WEATHER ROUNDUP FOR KANSAS
NATIONAL WEATHER SERVICE GOODLAND KS
1000 PM CDT TUE MAY 31 2016

NOTE:  "FAIR" INDICATES FEW OR NO CLOUDS BELOW 12,000 FEET WITH NO
SIGNIFICANT WEATHER AND/OR OBSTRUCTIONS TO VISIBILITY.

KSZ001>006-013>018-027>032-041>047-010400-
NORTHWEST KANSAS

CITY           SKY/WX    TMP DP  RH WIND       PRES   REMARKS
GOODLAND       PTCLDY    56  50  80 NE6       30.08R
HAYS           CLEAR     63  52  67 NE8       30.02R
HILL CITY      CLEAR     61  54  77 N5        30.04R
RUSSELL        MOCLDY    65  60  84 N6        30.01R
$$

KSZ061>065-074>080-084>089-010400-
SOUTHWEST KANSAS

CITY           SKY/WX    TMP DP  RH WIND       PRES   REMARKS
DODGE CITY     CLEAR     62  59  90 NE7       30.02R
ELKHART          N/A     64  52  65 E9          N/A
GARDEN CITY    CLOUDY    64  57  78 E8        30.03R
GREAT BEND     CLEAR     64  55  72 CALM      30.00R
LIBERAL        PTCLDY    66  55  68 E6        30.03R
$$

KSZ066>073-081>083-090>101-010400-
SOUTHEAST KANSAS

CITY           SKY/WX    TMP DP  RH WIND       PRES   REMARKS
CHANUTE        CLOUDY    72  67  84 E3        29.94R
COFFEYVILLE    CLOUDY    70  66  87 E8        29.94R
HUTCHINSON     CLEAR     67  62  84 N7        29.96S
MEDICINE LODGE   N/A     68  61  78 NE6       29.96R
NEWTON         CLEAR     64  57  77 N7        29.99R
PARSONS        CLOUDY    71  64  78 SE6       29.95R
WICHITA INTL   PTCLDY    72  62  71 N7        29.95R
WICHITA JABRA  CLEAR     66  63  90 N7        29.95R
WINFIELD       CLOUDY    70  66  87 CALM      29.95R
$$

KSZ007>012-019>026-033>040-048>060-102>105-010400-
NORTHEAST KANSAS

CITY           SKY/WX    TMP DP  RH WIND       PRES   REMARKS
CONCORDIA      CLEAR     65  57  75 CALM      30.00R
EMPORIA        CLOUDY    69  62  78 CALM      29.95R
LAWRENCE       PTCLDY    65  63  93 CALM      29.94R
MANHATTAN      CLEAR     69  59  70 NW5       29.96R
OLATHE IND     MOCLDY    70  64  81 CALM      29.95R
OLATHE EXE     CLOUDY    70  63  78 NW3       29.95R
SALINA         CLEAR     69  63  81 NW5       29.98R
TOPEKA BILLARD PTCLDY    70  65  84 CALM      29.94R
TOPEKA FORBES  PTCLDY    70  65  84 CALM      29.95R
$$




USA.gov is the U.S. government's official web portal to all federal, state and local government web resources and services.